Weather History for Jerez De La Fronteraaeropuerto, Spain

Change the Weather History Date:

Friday, December 27, 2013

  Actual Average Record
Temperature  
Mean Temperature 57 °F -  
Max Temperature 65 °F 59 °F - ()
Min Temperature 49 °F 40 °F - ()
Degree Days  
Heating Degree Days 8    
Growing Degree Days 7 (Base 50)    
Moisture  
Dew Point 55 °F    
Average Humidity 94    
Maximum Humidity 100    
Minimum Humidity 65    
Precipitation  
Precipitation 0.00 in 0.13 in - ()
Sea Level Pressure  
Sea Level Pressure 30.12 in    
Wind  
Wind Speed 3 mph ()    
Max Wind Speed 12 mph    
Max Gust Speed -    
Visibility 7.1 miles    
Events      
T = Trace of Precipitation, MM = Missing Value Source: Averaged Metar Reports

Daily Weather History Graph

Daily Weather History Graph

Search for Another Location

Airport:

Trip Planner

Search our weather history database for the weather conditions in past years. The results will help you decide how hot, cold, wet, or windy it might be!

Date:

Astronomy

Dec. 27, 2013 Rise Set
Actual Time 8:35 AM CET 6:15 PM CET
Civil Twilight 8:06 AM CET 6:44 PM CET
Nautical Twilight 7:34 AM CET 7:16 PM CET
Astronomical Twilight 7:02 AM CET 7:48 PM CET
Moon 2:57 AM CET (12/27) 2:12 PM CET (12/27)
Length of Visible Light 10h 37m
Length of Day
9h 39m
Waning Crescent, 31% of the Moon is Illuminated
Dec 27
Waning Crescent
Jan 1
New
Jan 8
First Quarter
Jan 16
Full
Jan 24
Last Quarter

Hourly Weather History & Observations

Time (CET) Temp. Dew Point Humidity Pressure Visibility Wind Dir Wind Speed Gust Speed Precip Events Conditions
12:00 AM 55 °F 55 °F 100% 30.26 in - East 1.2 mph - -  
1:00 AM 56 °F 55 °F 96% 30.26 in 12 mi Calm Calm - -   Mostly Cloudy
2:00 AM 55 °F 55 °F 100% 30.23 in - Calm Calm - -  
3:00 AM 55 °F 55 °F 99% 30.22 in - South 1.2 mph - -  
4:00 AM 54 °F 54 °F 99% 30.21 in 11 mi SSW 1.2 mph - -   Scattered Clouds
4:30 AM 53.6 °F 53.6 °F 100% 30.18 in 6.2 mi Variable 2.3 mph - N/A   Partly Cloudy
5:00 AM 52 °F 52 °F 100% 30.19 in - Calm Calm - -  
5:00 AM 51.8 °F 51.8 °F 100% 30.18 in 6.2 mi Variable 1.2 mph - N/A   Partly Cloudy
5:30 AM 51.8 °F 51.8 °F 100% 30.18 in 6.2 mi Calm Calm - N/A   Partly Cloudy
6:00 AM 51 °F 51 °F 100% 30.18 in - Calm Calm - -  
6:00 AM 51.8 °F 51.8 °F 100% 30.15 in 6.2 mi Calm Calm - N/A   Partly Cloudy
6:30 AM 50.0 °F 50.0 °F 100% 30.15 in 6.2 mi Calm Calm - N/A   Partly Cloudy
7:00 AM 49 °F 49 °F 100% 30.17 in 11 mi NNE 1.2 mph - -   Scattered Clouds
7:00 AM 50.0 °F 50.0 °F 100% 30.15 in 6.2 mi Variable 1.2 mph - N/A   Partly Cloudy
7:30 AM 50.0 °F 50.0 °F 100% 30.15 in 6.2 mi Variable 2.3 mph - N/A   Partly Cloudy
8:00 AM 49 °F 49 °F 100% 30.17 in - East 2.3 mph - -  
8:00 AM 50.0 °F 50.0 °F 100% 30.15 in 6.2 mi Variable 1.2 mph - N/A   Scattered Clouds
8:30 AM 50.0 °F 50.0 °F 100% 30.15 in 6.2 mi East 3.5 mph - N/A   Mostly Cloudy
9:00 AM 51 °F 51 °F 100% 30.17 in - Calm Calm - -  
9:00 AM 51.8 °F 51.8 °F 100% 30.15 in 6.2 mi Variable 1.2 mph - N/A   Mostly Cloudy
9:30 AM 51.8 °F 51.8 °F 100% 30.15 in 6.2 mi Variable 1.2 mph - N/A   Mostly Cloudy
10:00 AM 53 °F 53 °F 99% 30.16 in 12 mi NE 2.3 mph - -   Overcast
10:00 AM 53.6 °F 53.6 °F 100% 30.15 in 6.2 mi Variable 1.2 mph - N/A   Mostly Cloudy
10:30 AM 55.4 °F 55.4 °F 100% 30.15 in 6.2 mi Variable 1.2 mph - N/A   Mostly Cloudy
11:00 AM 56 °F 56 °F 100% 30.17 in - Calm Calm - -  
11:00 AM 55.4 °F 55.4 °F 100% 30.15 in 6.2 mi Calm Calm - N/A   Mostly Cloudy
11:30 AM 57.2 °F 57.2 °F 100% 30.15 in 6.2 mi Calm Calm - N/A   Mostly Cloudy
12:00 PM 59 °F 58 °F 94% 30.16 in - SE 1.2 mph - -  
12:00 PM 59.0 °F 57.2 °F 94% 30.15 in 6.2 mi Variable 1.2 mph - N/A   Mostly Cloudy
12:30 PM 60.8 °F 57.2 °F 88% 30.12 in 6.2 mi Variable 1.2 mph - N/A   Mostly Cloudy
1:00 PM 62 °F 58 °F 81% 30.13 in 12 mi Calm Calm - -   Scattered Clouds
1:00 PM 60.8 °F 57.2 °F 88% 30.12 in 6.2 mi Calm Calm - N/A   Mostly Cloudy
1:30 PM 60.8 °F 57.2 °F 88% 30.09 in 6.2 mi SSW 3.5 mph - N/A   Mostly Cloudy
2:00 PM 63 °F 55 °F 69% 30.10 in 12 mi SW 5.8 mph - -   Partly Cloudy
2:00 PM 62.6 °F 55.4 °F 77% 30.09 in 6.2 mi SSW 4.6 mph - N/A   Mostly Cloudy
2:30 PM 62.6 °F 53.6 °F 72% 30.06 in 6.2 mi WSW 6.9 mph - N/A   Mostly Cloudy
3:00 PM 64 °F 55 °F 65% 30.08 in - SSW 9.2 mph - -  
3:00 PM 62.6 °F 53.6 °F 72% 30.06 in 6.2 mi SW 9.2 mph - N/A   Mostly Cloudy
3:30 PM 62.6 °F 55.4 °F 77% 30.06 in 6.2 mi SSW 9.2 mph - N/A   Mostly Cloudy
4:00 PM 62 °F 59 °F 85% 30.07 in 12 mi SSW 11.5 mph - -   Partly Cloudy
4:00 PM 60.8 °F 57.2 °F 88% 30.06 in 6.2 mi SSW 10.4 mph - N/A   Mostly Cloudy
4:30 PM 62.6 °F 57.2 °F 82% 30.06 in 6.2 mi SW 10.4 mph - N/A   Mostly Cloudy
5:00 PM 62 °F 59 °F 87% 30.06 in - SSW 8.1 mph - -  
5:00 PM 60.8 °F 57.2 °F 88% 30.04 in 6.2 mi SSW 8.1 mph - N/A   Mostly Cloudy
5:30 PM 60.8 °F 57.2 °F 88% 30.04 in 6.2 mi SSW 9.2 mph - N/A   Scattered Clouds
6:00 PM 61 °F 59 °F 92% 30.06 in - SSW 11.5 mph - -  
6:00 PM 60.8 °F 59.0 °F 94% 30.04 in 6.2 mi SSW 11.5 mph - N/A   Scattered Clouds
6:30 PM 60.8 °F 57.2 °F 88% 30.04 in 6.2 mi SSW 9.2 mph - N/A   Scattered Clouds
7:00 PM 59 °F 58 °F 97% 30.06 in 9 mi South 6.9 mph - -   Partly Cloudy
7:00 PM 59.0 °F 57.2 °F 94% 30.04 in 6.2 mi South 5.8 mph - N/A   Scattered Clouds
7:30 PM 57.2 °F 57.2 °F 100% 30.06 in 6.2 mi SSW 8.1 mph - N/A   Partly Cloudy
8:00 PM 57 °F 57 °F 100% 30.06 in - South 5.8 mph - -  
8:00 PM 57.2 °F 57.2 °F 100% 30.06 in 6.2 mi South 4.6 mph - N/A   Partly Cloudy
8:30 PM 57.2 °F 57.2 °F 100% 30.06 in 6.2 mi Variable 2.3 mph - N/A   Scattered Clouds
9:00 PM 58 °F 58 °F 99% 30.07 in - SSW 8.1 mph - -  
9:00 PM 57.2 °F 57.2 °F 100% 30.06 in 6.2 mi SSW 6.9 mph - N/A   Mostly Cloudy
9:30 PM 59.0 °F 57.2 °F 94% 30.04 in 6.2 mi SSW 9.2 mph - N/A   Drizzle
10:00 PM 58 °F 58 °F 100% 30.06 in 9 mi SSW 9.2 mph - -   Partly Cloudy
10:00 PM 59.0 °F 59.0 °F 100% 30.04 in 6.2 mi SSW 9.2 mph - N/A   Mostly Cloudy
10:30 PM 59.0 °F 59.0 °F 100% 30.04 in 6.2 mi SSW 8.1 mph - N/A   Drizzle
11:00 PM 58 °F 58 °F 100% 30.05 in - South 8.1 mph - -   Unknown Precipitation
11:00 PM 59.0 °F 59.0 °F 100% 30.04 in 6.2 mi South 6.9 mph - N/A   Drizzle